GFSGL_con_mucape_057.txt.gz
CAPE
876 1608 1999 2237 2418 2833 2855 2408 1864 1598 1421 1593 1645 1715 1352 1100 969 707 451 432 534 363 308 153 191 271 289 170 211 51 101 30 9 80 67 66 29 114 166 98 69 390 540
2019 2144 2273 2407 2849 2623 2379 2306 2102 1766 1737 1733 1580 1230 1046 875 721 283 360 468 317 235 105 63 185 220 105 136 129 99 81 29 25 14 40 68 75 133 144 104 26 248 203
2172 2284 2434 2574 2653 2383 2313 2240 2211 2106 1800 1469 1126 806 652 754 392 422 201 363 268 192 228 77 21 36 19 33 74 134 112 51 26 18 42 41 109 140 129 60 6 139 621
2257 2239 2426 2509 2401 2144 2026 1508 1454 1120 1043 870 600 573 650 617 251 40 214 205 220 163 249 136 22 12 23 37 65 83 65 46 35 31 6 99 56 94 42 15 6 34 192
1890 2015 1948 1954 1832 1716 1591 1083 697 474 359 342 200 264 257 325 161 179 298 339 249 177 146 74 6 14 11 39 52 64 46 60 33 17 0 3 22 47 22 44 45 13 26
1776 1752 1475 1679 1366 1169 741 599 382 282 187 157 92 91 326 91 174 349 258 240 183 106 90 2 8 18 12 16 40 54 77 57 47 9 0 21 5 7 5 55 0 18 48
1384 1402 1396 1095 904 712 498 386 274 311 308 127 79 47 50 41 54 213 296 239 230 73 8 1 26 24 22 7 25 50 84 36 28 5 0 0 1 0 1 6 6 5 2
1246 1126 989 829 670 520 321 161 306 193 193 130 167 185 211 128 25 1 419 228 119 57 41 4 16 31 51 41 44 163 110 61 11 0 0 0 0 5 6 3 2 4 9
1010 893 695 461 387 319 178 218 244 202 156 195 177 170 112 5 0 0 187 197 79 30 0 5 12 23 54 6 70 75 11 0 0 0 0 0 0 5 15 3 3 10 15
446 361 425 327 330 294 102 222 105 81 90 196 191 62 3 0 0 0 60 41 11 0 0 8 10 21 23 51 66 41 0 5 5 0 0 5 10 7 8 10 0 3 3
227 406 569 419 252 193 345 204 130 158 198 236 156 37 0 0 0 33 63 31 1 0 0 15 1 1 0 100 49 16 23 9 1 0 0 7 8 8 5 22 19 0 0
470 544 572 415 492 325 235 130 151 222 246 162 83 15 3 0 0 0 21 25 9 0 0 19 6 4 81 93 52 10 0 3 0 0 0 0 0 22 27 28 32 20 26
393 405 405 420 443 280 160 182 227 207 131 40 99 32 23 0 0 2 2 18 1 0 5 13 15 36 89 54 30 5 0 0 0 0 4 0 0 0 0 2 13 4 7
317 273 387 390 383 235 303 235 196 217 101 37 0 26 53 2 0 0 0 6 5 8 10 13 13 31 30 28 23 11 44 5 1 0 0 0 0 0 0 14 10 12 18
336 420 275 259 390 347 212 272 186 137 164 45 29 0 0 1 0 0 0 0 0 5 8 2 3 16 9 7 17 8 7 3 2 6 1 0 0 0 1 3 1 1 15
428 310 295 274 299 303 245 255 225 136 123 107 87 36 6 0 0 4 2 0 4 12 12 3 0 5 3 7 13 7 3 2 2 5 0 0 0 6 1 1 9 6 2
312 205 245 206 224 302 242 231 47 53 64 77 32 52 25 7 1 2 8 0 3 0 28 21 14 0 7 4 11 8 0 0 6 4 3 0 0 2 0 11 11 15 6
314 264 264 219 251 228 174 62 0 1 27 11 6 15 20 15 0 0 0 0 3 0 0 9 13 8 7 3 30 7 4 2 0 0 1 0 0 18 1 9 12 8 1
234 272 293 435 301 369 225 28 0 0 0 0 0 8 7 1 0 0 0 0 0 0 0 7 9 11 10 7 1 6 3 1 0 0 1 0 0 0 0 10 1 3 1
310 414 256 434 333 258 212 58 68 0 0 0 0 0 0 0 0 0 0 0 8 25 0 8 8 13 28 16 3 8 0 0 0 4 1 0 0 0 0 0 0 0 0
189 251 313 397 523 285 282 205 240 102 3 0 0 0 0 0 0 0 0 0 17 37 34 7 0 0 2 2 7 12 0 0 0 1 8 6 1 2 0 3 0 2 7
162 60 109 226 315 351 383 461 331 142 55 0 0 0 0 0 0 0 0 10 8 1 27 27 27 15 17 6 5 6 3 4 7 16 18 41 21 21 5 0 0 0 0
1 43 109 177 350 405 452 593 504 262 129 0 0 0 0 0 4 11 34 35 43 34 38 22 41 21 17 42 24 21 20 26 28 40 46 42 42 40 36 31 15 13 27
36 134 109 189 334 393 379 575 557 395 278 0 0 0 0 6 61 72 59 53 63 58 59 46 42 70 56 40 38 42 49 48 41 56 52 44 51 78 148 132 129 129 124
126 51 94 148 108 246 390 462 474 420 28 26 19 21 45 98 162 163 110 95 122 111 55 88 110 107 93 49 69 60 62 66 60 81 66 149 109 127 101 164 145 120 86
55 28 47 96 117 102 325 290 329 196 109 120 174 197 186 187 176 130 126 106 164 146 125 89 62 138 100 93 35 26 31 39 33 61 91 135 137 118 152 160 130 143 109

GFSGL_con_mucape_060.txt.gz
CAPE
111 294 703 759 735 1419 1552 1684 1692 1885 1853 1747 1517 1133 1409 1351 1046 1006 868 557 401 170 348 214 85 54 60 144 27 26 25 15 11 49 18 23 86 46 63 146 53 304 377
348 656 1210 1394 1496 1804 1720 1652 1990 2007 1865 1178 1155 1274 1394 1214 1006 829 536 236 218 253 214 147 49 70 173 109 32 72 17 19 18 4 19 23 40 31 42 73 185 159 217
1056 1277 1509 1697 1930 2107 2195 2412 2469 2015 1419 1200 1180 1572 1490 1011 851 528 130 207 252 220 111 68 28 131 0 44 55 85 45 29 15 4 2 6 49 68 88 41 236 110 124
1575 1634 1833 1984 2100 2280 2427 2632 1921 1556 1314 1405 1480 1187 915 748 386 123 147 63 316 246 32 30 32 25 1 13 38 74 66 41 17 15 13 19 9 49 21 23 1 33 5
1871 1974 2080 2168 2422 2591 2593 2224 1668 1526 1563 1481 987 679 436 443 209 140 21 61 104 94 112 111 66 36 10 22 46 61 43 42 2 5 10 19 35 55 34 16 1 0 76
1785 1825 1856 1670 2320 2259 1954 1657 1626 1546 1263 909 403 184 287 389 259 21 111 167 193 163 65 78 56 3 29 24 47 30 44 47 10 0 4 1 2 13 83 1 0 9 26
1453 1566 1648 1526 1857 1554 1401 763 448 371 429 230 66 63 133 159 44 85 112 148 147 71 44 37 1 7 30 17 20 46 52 43 38 25 8 0 1 2 2 3 4 1 0
1087 1271 1300 1342 1211 1224 686 383 200 162 121 59 6 9 24 80 76 87 115 120 102 62 21 9 9 9 11 19 16 37 59 33 35 27 3 0 0 3 5 2 1 2 0
943 1050 1093 1159 815 605 392 143 113 116 86 46 24 9 4 17 14 53 180 128 102 72 45 4 4 19 30 28 15 47 62 60 38 9 0 0 0 4 6 1 1 3 0
902 949 765 648 495 368 72 49 45 57 36 48 71 91 66 6 0 0 117 111 63 29 8 2 15 23 42 13 83 98 80 16 0 0 0 0 0 12 5 7 0 16 7
744 698 537 326 196 67 28 21 52 35 41 55 56 38 3 0 0 0 57 49 22 3 0 2 3 23 43 28 74 49 8 0 1 1 2 0 8 20 11 7 8 12 3
464 355 252 142 65 16 12 12 10 28 43 53 30 2 0 0 0 13 49 40 10 1 0 9 4 7 37 58 64 7 0 1 0 18 3 13 5 0 5 5 10 14 35
295 281 149 122 60 11 25 22 16 26 39 32 17 0 0 0 0 0 5 11 19 2 3 21 13 21 77 70 23 0 0 1 7 8 6 4 5 3 1 58 6 10 18
330 278 197 127 72 48 25 12 21 40 32 6 0 1 2 0 0 0 0 8 2 2 15 12 48 58 46 43 39 6 1 1 1 2 0 0 0 2 1 1 19 5 6
332 248 232 191 80 21 4 25 48 37 8 0 0 0 0 0 0 0 0 1 0 10 22 24 57 74 25 21 21 16 32 1 0 18 17 5 0 3 0 1 3 13 5
209 184 157 139 67 49 25 16 33 49 19 16 4 6 0 0 0 0 0 0 2 14 33 11 10 44 30 8 10 7 10 1 4 5 0 0 0 0 0 1 12 9 4
242 218 183 96 61 29 21 14 8 19 35 62 39 23 9 0 0 1 0 1 10 18 23 6 13 27 15 5 6 5 4 3 3 3 4 0 0 1 1 2 5 27 8
109 53 12 87 122 76 46 53 32 0 16 25 64 38 13 13 5 2 0 0 12 3 35 12 9 4 32 14 5 9 5 1 4 0 0 0 0 1 0 8 8 32 16
90 22 23 78 118 111 62 17 0 0 3 12 15 38 38 20 2 1 0 0 10 0 3 14 30 12 30 13 9 14 5 4 1 0 12 0 2 12 16 12 21 10 1
44 43 34 82 116 84 15 0 0 0 0 0 3 10 3 10 0 0 0 0 0 0 0 8 17 11 10 14 39 1 7 0 1 5 0 1 0 0 1 11 13 20 5
121 129 165 191 197 162 39 0 0 0 0 0 0 3 11 1 0 0 1 1 27 21 4 6 14 32 10 21 14 0 3 0 0 3 3 0 0 0 0 3 5 1 0
163 190 259 394 296 184 132 56 47 0 0 0 0 0 0 0 1 0 3 15 23 43 46 24 1 6 22 11 14 11 0 0 0 9 15 9 7 2 0 0 0 0 0
260 287 207 338 324 220 151 132 74 0 0 0 0 0 0 0 7 7 13 10 14 20 18 30 20 12 13 13 19 14 2 8 8 16 18 14 42 42 34 23 13 6 6
91 83 189 256 404 244 207 151 83 0 0 0 0 0 0 2 6 21 44 42 42 17 9 24 53 25 34 45 34 30 20 21 24 32 33 41 59 63 68 66 80 65 40
62 79 111 226 281 333 203 151 172 12 0 0 0 0 0 40 32 34 58 55 76 65 65 71 66 52 67 65 47 45 42 51 61 65 67 67 61 48 36 39 64 87 83
133 154 177 208 337 356 314 290 280 63 0 0 0 1 37 95 52 60 43 42 114 68 66 74 88 66 66 75 79 73 62 59 55 59 73 79 80 58 118 85 84 66 70

GFSGL_con_mucape_063.txt.gz
CAPE
4 8 0 38 104 190 371 684 935 1163 1368 1601 1616 1671 1466 1224 1283 1429 1199 930 835 741 593 219 181 161 46 0 0 0 7 19 0 0 2 22 112 32 32 84 165 167 120
0 0 0 107 353 632 752 835 1040 1248 1527 1642 1745 1634 1451 1131 1271 1274 979 862 630 326 95 104 59 11 0 0 18 1 7 31 8 0 41 175 293 25 26 63 277 170 115
42 105 495 609 835 1012 1047 1142 1272 1339 1517 1812 1787 1559 1121 1196 1115 921 883 418 167 79 68 62 25 3 0 23 13 1 31 36 24 0 0 58 160 32 24 81 25 162 200
724 711 945 1120 1266 1247 1252 1189 1174 1310 1821 1914 1385 1047 1159 1479 1017 796 509 94 73 101 75 20 2 0 0 0 6 34 61 56 48 4 0 68 240 154 33 35 88 21 93
1127 1194 1247 1546 1645 1523 1424 1371 1476 2003 2067 1520 1095 1127 1353 1122 833 414 19 49 17 146 133 0 0 0 0 0 2 20 57 50 39 7 38 40 24 8 53 15 11 0 18
1499 1460 1416 1499 1703 1734 1818 1873 2189 2101 1608 1133 1284 1132 959 823 401 80 50 17 43 91 18 29 18 20 19 10 13 30 51 27 30 19 26 10 37 1 8 3 17 16 2
1597 1577 1771 1886 1850 1852 1924 1940 1817 1615 1288 1384 1007 774 536 317 222 92 37 42 29 49 68 0 2 23 2 3 9 43 26 14 14 33 17 13 2 8 20 9 15 5 0
1357 1399 1380 1565 1533 1617 1664 1760 1675 1545 1363 1116 475 127 160 256 131 25 67 66 54 44 0 0 0 0 0 16 10 25 32 27 32 32 22 12 0 1 27 13 3 0 0
725 1083 1139 1235 1116 1303 1368 1389 1413 1029 811 349 31 44 48 47 36 51 38 36 21 0 0 0 10 0 7 11 11 19 31 29 30 35 23 13 3 4 4 3 0 2 2
328 720 940 836 920 763 1074 543 322 229 167 83 33 7 6 4 3 33 31 22 0 1 0 18 3 3 20 17 10 15 27 34 48 35 14 0 0 0 4 5 5 5 4
296 628 571 669 519 776 427 182 102 46 25 28 30 5 18 27 0 0 0 0 0 19 5 0 1 16 35 20 19 40 40 43 44 7 0 0 0 4 0 5 4 0 0
353 210 454 445 434 443 241 91 81 134 99 26 23 33 29 7 0 0 0 34 36 23 0 0 6 12 33 20 28 31 5 0 0 3 0 0 2 11 3 5 3 9 14
32 405 424 376 214 54 0 1 11 14 11 10 17 20 10 0 0 1 30 36 14 4 0 3 5 11 20 30 28 13 3 1 3 4 24 15 2 11 13 16 10 12 7
182 272 185 144 65 0 1 3 4 6 2 10 15 0 0 0 0 0 14 6 17 9 4 18 24 10 23 58 20 4 4 1 19 18 44 31 18 5 10 18 15 8 0
232 192 138 46 30 1 4 4 5 23 30 38 14 0 0 0 0 0 1 43 1 3 6 21 35 68 15 27 8 7 11 1 1 125 41 86 14 8 31 29 23 8 2
220 187 140 45 13 9 25 35 18 14 49 50 14 0 0 0 0 0 0 0 2 16 13 21 30 43 29 14 15 3 8 0 0 18 10 0 14 23 20 5 28 27 10
250 243 63 47 74 38 20 27 54 61 81 38 13 1 0 0 0 0 0 0 6 19 24 33 25 22 10 5 16 23 34 8 6 0 0 15 24 14 13 15 14 23 11
284 118 141 113 69 26 16 16 75 105 64 36 21 10 11 7 1 0 0 6 5 23 29 14 18 27 50 21 15 6 9 6 7 4 1 2 0 0 3 5 11 7 27
152 96 64 42 34 34 30 39 39 36 60 66 62 10 13 20 11 0 0 1 18 8 22 10 20 20 0 11 13 9 7 5 7 1 0 2 7 14 5 6 19 8 4
128 78 50 41 66 80 70 87 38 28 47 50 67 27 18 21 4 0 0 0 1 0 0 34 17 23 3 14 6 6 5 0 0 1 9 7 3 6 19 22 20 24 13
48 30 44 72 155 129 57 10 0 16 31 28 54 45 38 13 1 2 2 0 5 0 4 8 24 25 14 23 18 8 7 6 5 0 8 3 1 17 2 20 14 30 15
78 61 57 114 137 79 35 6 0 9 18 22 33 32 18 2 11 13 0 20 38 32 10 9 7 8 20 19 5 5 5 0 0 3 1 5 2 5 10 11 21 16 11
87 118 140 131 139 162 86 52 9 4 16 13 12 2 0 2 11 2 12 11 24 51 36 7 16 15 8 6 0 0 0 0 0 13 22 19 15 24 39 33 22 25 15
175 204 167 160 178 163 145 98 59 0 0 0 0 0 0 0 3 4 15 17 17 17 41 18 13 18 17 18 20 11 10 30 28 24 25 26 40 54 70 81 75 85 109
198 193 193 199 234 218 130 101 0 0 0 0 0 0 0 0 8 23 49 49 16 19 43 71 56 52 67 43 61 54 41 38 35 46 48 52 65 65 72 69 60 57 51
127 179 269 218 245 203 157 40 0 0 0 0 0 1 21 21 44 63 76 62 62 57 72 66 72 84 70 72 75 56 57 51 49 50 43 44 47 46 33 49 41 40 35

GFSGL_con_mucape_069.txt.gz
CAPE
11 147 87 30 5 467 749 793 841 1234 1366 1144 1462 1831 1898 2192 2227 2225 2106 1726 1373 814 886 897 959 784 695 496 345 302 291 285 325 128 3 9 58 154 237 89 10 49 50
0 6 212 166 5 567 753 573 717 1136 1159 1089 1510 1692 1969 2261 2125 2065 1913 1472 1031 826 903 969 935 496 714 550 410 482 389 289 272 477 9 15 28 80 69 78 24 70 68
0 0 228 288 31 554 753 856 1057 1165 1247 1242 1480 1757 2071 2147 2080 1905 1790 1285 937 791 709 1068 924 635 623 439 439 486 504 432 312 228 76 23 20 63 13 8 5 19 20
0 5 464 487 95 673 950 1349 1494 1266 1330 1540 1668 1792 2037 2072 1884 1748 1550 955 989 839 711 928 670 544 605 614 574 691 694 429 298 258 126 56 18 12 35 8 1 43 5
6 80 669 914 48 377 996 1280 1424 1451 1537 1630 1830 1970 2157 1921 1644 1641 1101 919 986 795 718 534 531 278 138 418 560 720 598 457 302 208 96 35 16 30 56 24 30 52 2
4 226 782 1183 157 767 1193 1425 1594 1561 1675 1860 1997 2079 2109 1600 1636 1079 971 1007 817 750 626 494 373 3 4 0 0 2 253 577 142 159 59 121 40 29 17 90 2 55 5
35 192 1065 1373 854 925 1334 1514 1464 1563 1599 1881 2241 2074 2139 1726 1072 1148 896 795 795 728 777 667 334 113 35 6 0 0 0 0 62 154 77 141 130 19 57 37 26 39 10
10 311 1153 1385 1319 1461 1647 1339 1471 1488 1721 1920 1961 2193 1984 1196 1135 958 726 767 742 687 733 662 553 409 226 100 18 29 96 72 15 44 15 180 45 36 59 27 77 30 1
27 150 1132 1601 1802 1433 1522 1586 1532 1479 1565 1826 1866 1679 1345 1232 1022 823 138 707 568 475 373 365 447 361 0 0 23 8 10 16 10 12 6 20 11 13 29 5 10 41 3
49 62 419 1448 1855 1811 1721 1632 1276 1536 1955 1422 1657 1245 1120 1055 835 348 200 418 462 319 215 28 0 1 0 0 53 4 20 5 14 19 28 29 17 17 10 20 20 20 6
79 59 202 1119 1706 1395 1457 1692 1772 1311 1081 1367 1174 1013 813 448 285 129 51 422 302 61 10 0 0 0 0 0 1 36 16 12 13 7 22 21 23 15 11 18 85 70 18
28 87 519 1136 1101 1426 1608 1285 1179 1025 1067 1190 1093 676 98 121 200 84 23 80 31 63 4 0 0 0 0 8 3 20 13 26 14 36 44 29 21 1 5 10 9 35 35
177 209 681 762 762 765 704 820 842 739 1027 734 370 46 60 141 48 32 19 9 0 82 4 0 0 0 0 5 9 11 13 28 35 1 2 3 2 0 4 8 43 34 10
82 263 759 487 508 431 423 420 568 542 405 192 32 19 1 0 0 5 1 1 0 3 2 0 0 0 11 10 18 20 16 13 5 4 1 0 0 0 0 0 22 10 15
144 290 303 445 317 279 305 480 469 475 83 48 39 3 0 1 8 0 1 3 0 3 3 2 2 3 19 14 10 8 6 2 6 0 0 0 0 0 3 7 6 48 42
161 298 314 309 261 157 167 96 58 33 31 40 26 13 5 5 0 0 3 1 1 2 2 2 2 5 25 14 8 2 4 5 2 4 3 3 5 3 1 5 6 36 0
102 63 101 260 181 151 20 34 71 80 37 31 24 1 0 0 0 0 0 3 2 2 1 8 10 24 34 5 10 0 19 0 4 6 5 11 9 6 8 9 0 2 0
143 34 29 34 75 74 58 41 36 33 49 3 0 0 0 0 0 0 0 1 0 3 12 8 21 15 42 14 1 25 26 0 3 3 5 0 3 5 1 1 1 0 32
12 73 207 148 90 52 29 34 17 14 0 0 0 0 0 0 0 0 0 0 2 19 19 7 13 4 14 40 30 14 1 10 3 2 17 5 6 0 6 4 6 38 14
103 23 88 42 6 7 36 58 48 8 0 0 0 3 0 0 0 0 0 0 6 20 28 25 21 16 12 30 18 6 6 3 0 0 0 0 7 6 0 18 2 2 1
37 18 9 28 50 61 86 74 15 13 0 0 5 14 15 0 0 0 7 19 16 12 3 2 0 70 8 99 35 41 18 16 10 1 4 0 1 1 6 9 5 8 4
20 79 211 132 71 67 37 7 44 37 20 6 7 5 7 0 19 21 0 0 0 1 3 5 5 9 94 74 18 12 10 5 5 5 5 7 0 0 0 1 5 5 5
325 292 86 29 19 16 12 24 14 25 61 29 6 4 26 5 14 14 15 18 7 0 11 8 10 4 3 7 15 6 10 8 5 9 5 20 2 24 35 16 5 4 0
373 281 55 72 33 4 4 1 1 25 19 75 13 16 9 12 7 1 5 37 10 7 4 3 4 12 7 2 4 25 0 12 3 12 6 43 47 35 72 32 32 37 44
384 272 82 40 1 0 0 0 16 30 37 5 26 16 13 14 1 6 39 31 17 2 8 15 18 12 20 9 12 16 0 0 5 10 32 33 38 40 38 64 68 48 95
400 219 61 68 32 0 0 2 9 18 10 20 10 4 16 1 0 8 4 20 22 25 12 5 17 16 32 15 7 4 6 9 56 45 33 30 33 27 57 62 80 68 60

GFSGL_con_mucape_072.txt.gz
CAPE
0 0 0 0 52 294 476 416 1139 2036 1507 1558 2251 2573 2527 2287 2448 3005 3273 2987 2993 2856 2511 2033 1892 1917 1659 1214 893 914 655 555 315 854 515 356 346 323 159 225 353 616 385
5 0 0 2 2 43 578 600 753 1101 1128 1297 1808 2149 2027 1999 2635 3052 3130 2776 2829 2622 1883 1790 1588 1590 1691 1349 1014 944 710 546 432 689 620 100 213 512 398 316 124 209 518
0 1 4 2 1 9 519 858 829 856 1012 1313 1664 1952 1794 1918 2647 2902 2839 2668 2675 2441 1887 1733 1687 1630 1618 1159 1058 792 647 663 703 538 663 139 302 571 256 36 79 241 104
0 1 4 4 3 1 527 997 877 868 1016 1400 1887 1961 1792 2046 2461 2622 2654 2568 2473 2047 1835 1747 1689 1507 1332 1178 981 792 676 789 636 567 558 183 263 279 241 64 23 63 70
2 1 8 7 4 1 465 1000 636 1129 1341 1825 2071 1885 1876 2234 2340 2584 2532 2518 2485 1932 1683 1480 1431 964 585 678 702 875 1224 826 578 468 386 314 327 112 413 114 5 23 83
2 6 14 10 6 139 595 876 1012 1510 2156 2393 2354 1911 2339 2130 1852 2100 2272 2542 1955 1766 1460 1428 1034 372 220 219 206 189 457 1187 953 513 1015 507 353 135 455 146 103 61 56
0 3 10 13 4 329 730 700 1447 2839 3351 3160 2912 2303 2763 2357 1913 1954 1786 2172 2015 1780 1436 1253 863 439 273 419 9 0 39 73 174 925 704 567 442 280 80 379 112 84 49
5 48 0 18 47 462 1003 1090 2599 3228 3581 3529 3330 3039 2957 2192 1731 1705 1298 1983 1768 1538 1306 1076 997 741 631 597 573 395 377 267 125 172 478 284 221 553 113 170 125 89 64
104 181 25 43 12 701 1133 2074 3116 3064 3254 3423 3001 2913 2987 1851 1725 1294 1025 1610 1325 1024 853 979 931 790 441 186 484 312 435 219 3 1 6 14 42 14 47 47 9 7 10
84 153 0 2 15 809 1505 2319 2625 2332 2655 2802 2846 2978 2565 1641 1308 1130 894 632 859 703 883 862 371 431 307 0 383 253 86 80 7 3 4 7 2 6 13 210 15 56 15
17 13 5 1 424 1055 1501 1717 1867 2183 2255 2414 2385 2182 1481 1298 1205 942 669 524 539 557 610 721 438 95 29 0 0 217 158 17 4 8 14 19 23 14 16 55 14 6 12
25 4 0 1 729 1212 2001 2116 2013 1783 1873 1834 1387 1236 1332 1234 998 671 280 220 305 671 601 475 204 0 0 0 0 7 13 8 4 11 11 12 19 14 2 34 219 183 85
83 36 89 385 1189 1323 1341 1241 1237 1647 1194 1163 1257 1164 940 910 694 173 143 275 151 594 481 50 0 0 0 0 0 9 17 25 13 11 8 16 48 25 30 13 46 8 14
3 25 362 695 958 838 1446 1264 1501 989 1108 1294 1183 822 808 232 155 127 33 3 0 33 0 0 0 0 0 1 2 7 14 15 29 67 23 6 9 13 0 15 47 49 20
2 133 236 653 611 544 776 813 862 903 860 679 928 721 492 555 228 64 6 92 189 6 0 0 0 0 2 0 8 34 57 44 50 97 56 47 19 15 39 72 84 66 46
32 290 365 439 486 474 468 407 288 336 242 194 166 269 287 92 2 0 0 1 0 0 7 6 0 0 10 10 29 63 48 21 48 49 34 32 2 0 14 13 8 56 42
74 267 217 335 391 493 505 270 144 53 63 53 41 53 15 0 0 0 1 0 0 0 39 6 0 0 4 51 12 32 50 30 43 41 21 9 2 7 2 40 63 64 69
169 158 191 217 203 198 127 147 124 125 86 71 70 22 0 0 0 1 2 0 1 15 23 0 0 6 29 80 44 84 60 30 33 2 4 10 53 46 0 10 50 10 14
117 107 119 174 217 300 551 506 457 269 104 55 2 0 1 0 1 1 3 12 15 22 12 3 15 17 30 9 44 76 63 45 29 4 4 9 4 9 2 0 31 1 2
17 98 104 428 503 470 378 303 223 99 59 3 0 0 0 0 0 0 7 9 9 5 10 5 3 3 101 129 73 9 41 2 0 25 17 0 2 21 1 5 7 1 3
109 137 229 266 370 300 281 222 160 144 111 24 0 0 0 1 0 11 11 7 18 25 3 16 35 108 101 65 23 8 6 47 49 35 36 33 0 2 0 0 5 1 8
193 251 359 334 287 263 255 344 225 131 69 0 0 0 0 39 36 37 17 5 15 24 19 4 32 68 94 113 37 56 53 54 34 36 27 14 2 11 8 0 0 1 28
301 198 323 207 321 32 121 178 133 69 16 5 4 5 0 39 15 0 2 5 12 6 4 5 2 0 71 115 69 55 50 53 32 3 3 2 11 43 30 16 38 7 32
477 339 277 173 181 78 27 19 0 1 12 18 7 5 0 0 3 9 1 0 0 9 0 9 4 3 5 0 2 6 45 16 8 6 1 23 12 10 41 13 19 5 11
463 360 271 16 0 0 0 8 20 35 30 11 1 18 0 0 0 11 14 10 4 14 9 15 10 0 2 0 5 1 5 0 14 0 4 14 31 11 5 23 45 25 62
489 136 1 0 0 0 0 0 53 33 21 13 24 6 0 0 4 23 11 4 0 6 2 0 4 6 11 9 23 14 4 0 0 16 28 17 13 14 18 16 43 80 64

GFSGL_con_mucape_075.txt.gz
CAPE
1 2 0 0 0 31 205 511 1085 1767 1748 1526 1609 2749 3468 4507 4649 4518 3906 2863 2817 3431 3495 3684 3544 3693 2149 2044 1528 1356 604 640 819 1235 914 1117 804 507 486 368 502 740 606
0 0 0 6 0 89 79 124 637 1266 1560 1837 1717 1506 2624 3350 4018 3721 3453 2364 3142 3539 3483 3094 3194 2293 2887 2920 1965 2275 971 1995 895 1716 953 709 464 602 547 487 336 313 728
0 0 0 0 3 106 183 95 112 701 1396 1340 1503 1739 2386 3048 3646 3665 3159 2703 3515 3437 3228 3166 2938 2740 3041 2576 2049 1424 914 1101 864 625 1126 1097 386 876 521 470 356 402 413
0 0 0 3 2 18 59 77 193 190 1464 1220 1721 1573 2300 3030 3178 3143 2970 3464 3645 3266 3517 2940 2238 2461 2468 2263 2029 1641 1598 1501 959 1357 1274 959 534 942 608 300 31 287 156
0 0 0 5 1 1 46 127 118 330 1838 1058 1442 1951 2492 2878 2642 3178 3388 3632 3872 3555 3415 2364 2510 2040 1426 1637 1070 1752 1741 998 821 1183 921 1177 569 344 514 437 79 91 58
0 0 0 0 2 11 79 247 67 306 1990 1437 1607 1902 2619 2733 1881 2459 3149 3771 3669 3227 3048 2433 1992 1224 1024 684 487 370 598 1255 1178 1480 1255 836 980 721 1090 572 109 29 87
6 1 8 12 8 27 67 112 270 718 2056 2082 2405 2697 3170 3648 1764 2046 2620 3831 3455 3204 2660 2569 1727 1189 770 777 353 238 236 320 311 1102 997 949 362 832 711 752 718 85 433
22 22 19 1 14 55 127 196 600 939 2000 2329 2994 3705 3748 3475 1819 2071 2402 3657 3278 2689 2676 2214 1852 1550 884 637 579 403 369 437 207 245 854 870 911 1024 556 924 878 577 317
19 20 0 5 4 68 269 421 626 1326 1946 2583 3129 3234 3451 2343 2018 2170 2189 3071 2673 2331 1863 1648 1608 1270 624 349 782 731 727 237 138 50 50 43 28 87 154 257 554 538 123
0 0 1 40 108 209 260 228 450 965 1977 2868 3183 3050 2896 2345 2145 2115 2103 2069 2164 1781 1799 1022 728 871 562 307 765 740 497 588 192 10 4 4 3 10 26 271 140 327 158
0 17 47 65 31 308 460 103 340 619 2247 2813 2891 3059 3270 2214 2007 1909 1735 2031 1583 1301 978 1093 674 463 328 259 73 689 477 305 51 93 66 73 85 20 15 70 133 23 25
27 0 1 52 178 344 201 18 136 867 1790 2578 2415 2593 2723 1734 1770 1350 1392 1032 861 1079 578 768 469 234 208 10 0 54 16 38 1 3 15 27 2 55 64 181 81 15 7
64 49 47 11 12 9 16 288 779 1176 1471 1762 1997 2097 1548 1608 1351 1115 859 502 471 1109 728 457 274 51 0 0 0 0 0 44 23 23 11 4 13 27 7 52 151 35 40
32 0 0 31 0 36 146 531 928 1171 1489 1793 1696 1779 1217 1368 1219 1004 685 667 359 409 280 196 23 0 0 0 0 0 24 47 19 65 29 24 13 12 25 83 58 116 32
0 0 0 0 0 3 233 828 1221 1301 1602 1929 1971 1442 1292 1249 1108 876 637 507 467 220 104 0 0 0 0 0 0 0 22 41 71 54 137 18 25 2 55 62 46 153 117
33 11 40 18 65 259 715 913 1006 1265 1437 1254 1107 1229 1008 836 659 374 212 202 149 44 1 10 0 0 0 0 9 102 75 47 56 88 77 80 42 1 109 97 94 109 103
12 84 194 244 576 852 1004 1438 872 915 871 718 623 556 393 312 134 127 90 44 20 0 33 9 11 0 0 19 90 129 59 79 60 79 53 30 47 26 13 22 18 21 98
98 88 147 202 268 327 623 404 413 299 247 171 185 163 213 147 97 27 0 0 0 0 40 10 14 0 12 23 103 106 62 56 73 59 35 37 11 5 2 16 53 62 83
51 124 167 249 313 354 353 525 444 409 99 143 125 67 47 16 3 0 0 6 8 51 24 9 11 5 12 68 135 80 67 46 28 21 25 18 4 4 5 14 39 21 6
86 58 172 336 528 598 247 594 495 154 110 93 58 30 21 0 0 0 0 9 28 31 29 1 0 3 3 106 82 120 87 38 26 16 29 32 45 19 2 4 32 22 35
17 76 173 421 559 469 537 560 252 321 164 46 42 21 1 5 161 4 20 86 23 14 30 14 4 29 67 130 74 30 77 31 31 57 47 37 32 0 2 42 4 4 0
12 111 298 505 502 603 668 366 387 216 46 0 25 1 7 34 2 7 28 32 33 13 7 22 93 80 120 129 86 50 25 55 69 41 43 34 24 0 0 0 6 20 26
180 170 306 520 529 169 436 491 312 21 7 12 14 0 41 60 26 3 6 32 6 5 17 13 6 106 193 128 99 66 68 59 33 38 34 28 27 53 66 54 19 18 5
304 404 346 441 474 510 443 202 140 5 28 32 51 10 1 2 0 2 3 16 12 6 13 20 4 1 50 74 71 26 20 45 75 53 39 47 36 54 56 18 5 32 16
245 346 258 350 241 152 135 55 51 7 0 5 6 0 0 0 0 0 0 0 8 7 4 3 5 3 9 0 0 13 21 12 11 4 4 0 42 3 9 18 9 36 6
590 380 233 80 142 173 89 0 0 0 0 0 0 2 0 0 0 3 5 6 24 10 12 3 5 2 3 2 4 10 3 0 0 0 6 42 19 22 19 24 18 31 73